DateTimeUTC,F1_A11,F1_S11,BsB_S11,BsG_S11,BsR_S11,BbsB_S11,BbsG_S11,BbsR_S11,BaB_A11,BaG_A11,BaR_A11,Tu_S11,T_S11,Uu_S11,U_S11,P_S11,T1_A11
2021-12-11T15:00:00Z,00000200,21000000,,,,,,,0000.17,0000.06,0000.24,20.9,27.9,,00.0,0650.1,31.3
2021-12-11T15:01:00Z,00000200,21000000,,,,,,,0000.15,-000.12,-000.04,20.9,27.9,,00.0,0650.1,31.3
2021-12-11T15:02:00Z,00000200,21000000,,,,,,,-000.04,0000.08,0000.03,20.9,27.9,,00.0,0650.1,31.4
2021-12-11T15:03:00Z,00000200,61000000,,,,,,,0000.37,0000.46,-000.17,20.9,27.9,,00.0,0650.1,31.4
2021-12-11T15:04:00Z,00000200,41000000,-000.27,0000.06,0000.39,0000.05,-000.03,0000.41,0000.41,0000.13,0000.63,21.2,27.8,,00.0,0651.0,31.4
2021-12-11T15:05:00Z,00000200,01000000,0000.90,0000.26,0000.30,0000.38,0000.14,0000.44,0000.15,0000.20,-000.02,21.2,27.8,,00.0,0651.0,31.4
2021-12-11T15:06:00Z,00000200,01000000,-000.03,0000.47,0000.13,0000.37,-000.18,0000.46,0000.28,0000.13,-000.07,21.2,27.7,,00.0,0651.0,31.4
2021-12-11T15:07:00Z,00000200,01000000,-000.27,0000.03,0000.49,0000.46,-000.41,0000.62,0000.05,0000.11,0000.01,21.1,27.7,,00.0,0650.9,31.3
2021-12-11T15:08:00Z,00000200,01000000,0000.65,0000.28,0000.41,0000.30,-000.16,0000.32,0000.18,0000.46,0000.30,21.0,27.6,,00.0,0650.9,31.3
2021-12-11T15:09:00Z,00000200,01000000,-000.43,0000.07,0000.49,0000.36,-000.35,-000.03,0000.52,0000.15,0000.18,20.9,27.6,,00.0,0650.9,31.2
2021-12-11T15:10:00Z,00000200,01000000,0000.74,0000.20,0000.28,0000.74,0000.01,0000.19,-000.06,0000.07,-000.05,20.8,27.5,,00.0,0650.9,31.2
2021-12-11T15:11:00Z,00000200,01000000,0000.25,-000.20,0000.07,-000.06,-000.18,0000.08,0000.14,0000.12,0000.33,20.7,27.5,,00.0,0650.9,31.2
2021-12-11T15:12:00Z,00000200,01000000,0000.52,0000.34,0000.35,0000.33,-000.29,0000.11,-000.08,0000.34,-000.07,20.7,27.4,,00.0,0650.8,31.1
2021-12-11T15:13:00Z,00000200,01000000,0000.71,-000.09,0000.46,0000.63,0000.02,0000.04,0000.04,-000.70,-000.13,20.6,27.3,,00.0,0650.8,31.1
2021-12-11T15:14:00Z,00000200,01000000,0000.32,0000.09,0000.29,0000.21,-000.10,0000.26,0000.49,0000.69,0000.32,20.6,27.3,,00.0,0650.9,31.1
2021-12-11T15:15:00Z,00000200,01000000,0000.58,0000.06,0000.36,0000.72,-000.22,0000.31,0000.16,0000.35,0000.17,20.6,27.3,,00.0,0650.8,31.1
2021-12-11T15:16:00Z,00000200,01000000,0000.65,0000.25,0000.44,0000.20,-000.46,-000.05,0000.39,-000.21,0000.14,20.7,27.3,,00.0,0651.0,31.2
2021-12-11T15:17:00Z,00000200,01000000,0000.34,0000.13,0000.18,0000.20,0000.01,0000.05,-000.20,0000.25,0000.04,20.7,27.3,,00.0,0650.9,31.2
2021-12-11T15:18:00Z,00000200,01000000,-000.46,0000.15,0000.53,0000.40,0000.08,0000.03,0000.46,0000.53,0000.28,20.8,27.3,,00.0,0650.9,31.2
2021-12-11T15:19:00Z,00000200,01000000,0000.44,-000.07,0000.03,0000.85,-000.22,0000.22,-000.14,0000.16,0000.02,20.8,27.3,,00.0,0651.0,31.2
2021-12-11T15:20:00Z,00000200,01000000,-000.59,0000.25,0000.41,0000.05,-000.09,0000.59,0000.35,0000.22,-000.01,20.9,27.3,,00.0,0651.0,31.2
2021-12-11T15:21:00Z,00000200,01000000,0000.34,-000.12,0000.44,-000.06,0000.04,0000.05,0000.24,-000.19,0000.40,20.9,27.4,,00.0,0651.0,31.2
2021-12-11T15:22:00Z,00000200,01000000,-000.45,-000.02,0000.22,0000.08,0000.01,0000.01,-000.09,0000.27,0000.03,21.0,27.4,,00.0,0651.0,31.2
2021-12-11T15:23:00Z,00000200,01000000,-000.56,-000.30,0000.29,0000.20,-000.26,0000.13,0000.59,0000.30,0000.26,21.0,27.4,,00.0,0651.0,31.2
2021-12-11T15:24:00Z,00000200,01000000,0000.57,0000.06,0000.21,0000.50,-000.10,-000.05,-000.13,-000.08,-000.09,21.0,27.4,,00.0,0651.1,31.2
2021-12-11T15:25:00Z,00000200,01000000,0000.40,0000.08,0000.34,-000.20,-000.06,0000.08,-000.08,0000.28,0000.06,21.0,27.4,,00.0,0651.1,31.2
2021-12-11T15:26:00Z,00000200,01000000,0000.43,-000.25,0000.13,-000.25,0000.14,0000.17,0000.32,0000.10,0000.11,21.0,27.4,,00.0,0651.1,31.2
2021-12-11T15:27:00Z,00000200,01000000,-000.22,0000.19,0000.47,0000.40,-000.09,0000.27,0000.10,0000.32,-000.03,20.9,27.4,,00.0,0651.1,31.2
2021-12-11T15:28:00Z,00000200,01000000,-000.42,0000.09,0000.26,0000.50,0000.12,0000.13,-000.08,-000.22,0000.14,20.9,27.3,,00.0,0651.1,31.2
2021-12-11T15:29:00Z,00000200,01000000,0000.06,-000.10,0000.55,0000.10,0000.01,0000.83,0000.56,0000.23,0000.12,20.9,27.3,,00.0,0651.1,31.2
2021-12-11T15:30:00Z,00000200,01000000,0000.29,0000.25,0000.34,-000.25,-000.32,-000.12,0000.13,0000.37,0000.32,20.9,27.3,,00.0,0651.1,31.2
2021-12-11T15:31:00Z,00000200,01000000,0000.53,0000.21,0000.16,0000.20,-000.25,0000.03,0000.60,0000.30,-000.01,20.9,27.3,,00.0,0651.1,31.2
2021-12-11T15:32:00Z,00000200,01000000,-000.26,-000.32,0000.37,0000.36,-000.06,0000.66,-000.07,0000.02,-000.05,20.9,27.3,,00.0,0651.2,31.2
2021-12-11T15:33:00Z,00000200,01000000,0000.59,-000.10,0000.15,0000.20,-000.09,0000.12,0000.03,-000.01,0000.35,21.0,27.4,,00.0,0651.1,31.2
2021-12-11T15:34:00Z,00000200,01000000,-000.20,-000.13,0000.36,-000.28,-000.16,0000.08,0000.39,0000.12,0000.17,21.0,27.4,,00.0,0651.1,31.2
2021-12-11T15:35:00Z,00000200,01000000,0000.37,0000.11,0000.21,0000.53,-000.00,0000.52,0000.23,0000.19,0000.40,21.1,27.4,,00.0,0651.1,31.2
2021-12-11T15:36:00Z,00000200,01000000,0000.10,-000.16,0000.07,0000.22,0000.02,0000.19,0000.15,0000.53,-000.14,21.1,27.4,,00.0,0651.2,31.2
2021-12-11T15:37:00Z,00000200,01000000,0000.47,0000.31,0000.36,0000.86,-000.08,0000.32,0000.13,-000.13,0000.28,21.2,27.4,,00.0,0651.2,31.2
2021-12-11T15:38:00Z,00000200,01000000,-000.17,0000.13,0000.25,0000.34,0000.12,0000.43,0000.29,0000.55,0000.17,21.2,27.5,,00.0,0651.1,31.2
2021-12-11T15:39:00Z,00000200,01000000,-000.01,-000.10,0000.08,-000.25,-000.10,0000.27,-000.02,-000.07,0000.26,21.3,27.5,,00.0,0651.1,31.2
2021-12-11T15:40:00Z,00000200,01000000,-000.12,0000.02,0000.55,-000.03,0000.04,0000.18,0000.32,0000.55,0000.11,21.3,27.5,,00.0,0651.1,31.3
2021-12-11T15:41:00Z,00000200,01000000,-000.36,0000.31,0000.01,-000.02,-000.22,0000.03,0000.23,0000.07,0000.03,21.3,27.5,,00.0,0651.0,31.3
2021-12-11T15:42:00Z,00000200,01000000,0000.35,0000.11,0000.11,0000.09,-000.10,0000.47,0000.29,-000.04,0000.10,21.2,27.5,,00.0,0650.9,31.2
2021-12-11T15:43:00Z,00000200,01000000,0000.35,0000.04,0000.26,0000.06,0000.24,0000.36,-000.08,0000.31,0000.20,21.2,27.5,,00.0,0650.9,31.2
2021-12-11T15:44:00Z,00000200,01000000,0000.57,-000.04,0000.28,0000.57,0000.10,0000.15,0000.04,0000.03,-000.00,21.1,27.5,,00.0,0650.9,31.2
2021-12-11T15:45:00Z,00000200,01000000,0000.96,0000.17,0000.23,0000.68,0000.48,0000.25,0000.01,0000.31,0000.35,21.1,27.5,,00.0,0650.9,31.2
2021-12-11T15:46:00Z,00000200,01000000,-000.23,-000.01,0000.33,0000.42,-000.08,0000.22,0000.59,-000.09,-000.10,21.2,27.4,,00.0,0650.9,31.2
2021-12-11T15:47:00Z,00000200,01000000,0000.17,0000.19,0000.53,-000.16,-000.37,0000.15,0000.05,0000.43,0000.15,21.2,27.5,,00.0,0651.0,31.2
2021-12-11T15:48:00Z,00000200,01000000,0000.13,0000.24,0000.09,0000.15,0000.04,-000.00,0000.33,-000.37,0000.16,21.2,27.5,,00.0,0651.0,31.2
2021-12-11T15:49:00Z,00000200,01000000,-000.74,-000.02,0000.41,0000.58,-000.20,0000.66,-000.19,0000.03,-000.23,21.3,27.5,,00.0,0651.0,31.2
2021-12-11T15:50:00Z,00000200,01000000,-000.03,-000.01,0000.42,0000.83,-000.20,0000.26,0000.18,0000.28,0000.11,21.3,27.5,,00.0,0651.0,31.2
2021-12-11T15:51:00Z,00000200,01000000,0000.09,-000.10,0000.13,0000.49,0000.16,0000.19,0000.18,0000.01,-000.02,21.4,27.5,,00.0,0651.0,31.3
2021-12-11T15:52:00Z,00000200,01000000,-000.19,0000.21,0000.39,-000.17,-000.07,0000.23,0000.39,0000.31,-000.13,21.3,27.6,,00.0,0651.0,31.3
2021-12-11T15:53:00Z,00000200,01000000,0000.32,0000.12,0000.45,0000.21,0000.08,0000.56,-000.07,0000.16,0000.29,21.3,27.6,,00.0,0651.0,31.3
2021-12-11T15:54:00Z,00000200,01000000,0000.18,-000.11,0000.08,0000.22,0000.18,0000.40,0000.10,0000.18,0000.29,21.3,27.6,,00.0,0651.0,31.3
2021-12-11T15:55:00Z,00000200,01000000,0000.16,0000.23,0000.34,0000.22,-000.04,0000.33,0000.24,0000.09,0000.20,21.2,27.5,,00.0,0650.9,31.2
2021-12-11T15:56:00Z,00000200,01000000,-000.29,0000.04,0000.55,0000.69,-000.43,0000.42,-000.17,0000.40,0000.09,21.1,27.5,,00.0,0651.0,31.2
2021-12-11T15:57:00Z,00000200,41000000,,,,,,,0000.18,-000.48,-000.34,21.1,27.5,,00.0,0651.0,31.2
2021-12-11T15:58:00Z,00000200,61000000,,,,,,,-000.07,-000.05,0000.03,20.7,27.5,,00.0,0650.1,31.2
2021-12-11T15:59:00Z,00000200,21000000,,,,,,,-000.30,0000.13,0000.22,20.7,27.6,,00.0,0650.0,31.1
